Time,TemperatureF,DewpointF,PressureIn,WindDirection,WindDirectionDegrees,WindSpeedMPH,WindSpeedGustMPH,Humidity,HourlyPrecipIn,Conditions,Clouds,dailyrainin,SoftwareType,DateUTC
2013-05-27 00:02:00,51.6,43.9,30.18,NNW,338,10.0,11.0,75,0.00,,,0.00,meteohub,2013-05-27 04:02:00,
2013-05-27 00:03:00,51.6,43.9,30.18,NNW,338,10.0,11.0,75,0.00,,,0.00,meteohub,2013-05-27 04:03:00,
2013-05-27 00:04:00,51.6,43.9,30.18,NNW,338,10.0,11.0,75,0.00,,,0.00,meteohub,2013-05-27 04:04:00,
2013-05-27 00:05:00,51.6,43.9,30.18,NNW,338,10.0,11.0,75,0.00,,,0.00,meteohub,2013-05-27 04:05:00,
2013-05-27 00:10:00,51.6,43.9,30.18,NNW,338,10.0,10.0,75,0.00,,,0.00,meteohub,2013-05-27 04:10:00,
2013-05-27 00:15:00,52.0,44.6,30.18,NW,315,9.0,10.0,76,0.00,,,0.00,meteohub,2013-05-27 04:15:00,
2013-05-27 00:20:00,51.8,44.1,30.18,NW,315,10.0,10.0,75,0.00,,,0.00,meteohub,2013-05-27 04:20:00,
2013-05-27 00:25:00,51.8,44.1,30.18,NW,315,11.0,11.0,75,0.00,,,0.00,meteohub,2013-05-27 04:25:00,
2013-05-27 00:30:00,52.0,44.2,30.18,NW,315,8.0,11.0,75,0.00,,,0.00,meteohub,2013-05-27 04:30:00,
2013-05-27 00:36:00,52.0,44.6,30.18,NW,315,11.0,11.0,76,0.00,,,0.00,meteohub,2013-05-27 04:36:00,
2013-05-27 00:41:00,52.0,44.6,30.18,WNW,293,8.0,11.0,76,0.00,,,0.00,meteohub,2013-05-27 04:41:00,
2013-05-27 00:46:00,52.0,45.0,30.18,NW,315,9.0,11.0,77,0.00,,,0.00,meteohub,2013-05-27 04:46:00,
2013-05-27 00:51:00,52.0,45.3,30.18,WNW,293,7.0,11.0,78,0.00,,,0.00,meteohub,2013-05-27 04:51:00,
2013-05-27 00:56:00,51.6,45.0,30.18,NW,315,8.0,9.0,78,0.00,,,0.00,meteohub,2013-05-27 04:56:00,
2013-05-27 01:01:00,51.6,45.0,30.18,NW,315,8.0,11.0,78,0.00,,,0.00,meteohub,2013-05-27 05:01:00,
2013-05-27 01:06:00,51.6,45.0,30.18,NW,315,5.0,11.0,78,0.00,,,0.00,meteohub,2013-05-27 05:06:00,
2013-05-27 01:11:00,51.4,44.8,30.18,NW,315,6.0,8.0,78,0.00,,,0.00,meteohub,2013-05-27 05:11:00,
2013-05-27 01:16:00,51.6,45.3,30.18,NW,315,5.0,8.0,79,0.00,,,0.00,meteohub,2013-05-27 05:16:00,
2013-05-27 01:21:00,51.4,45.1,30.18,West,270,6.0,8.0,79,0.00,,,0.00,meteohub,2013-05-27 05:21:00,
2013-05-27 01:27:00,51.4,45.1,30.18,WNW,293,6.0,8.0,79,0.00,,,0.00,meteohub,2013-05-27 05:27:00,
2013-05-27 01:32:00,51.6,45.3,30.18,WNW,293,5.0,8.0,79,0.00,,,0.00,meteohub,2013-05-27 05:32:00,
2013-05-27 01:37:00,51.4,45.1,30.18,NW,315,8.0,8.0,79,0.00,,,0.00,meteohub,2013-05-27 05:37:00,
2013-05-27 01:42:00,51.6,45.3,30.18,NW,315,6.0,8.0,79,0.00,,,0.00,meteohub,2013-05-27 05:42:00,
2013-05-27 01:47:00,51.4,45.1,30.17,NNW,338,5.0,8.0,79,0.00,,,0.00,meteohub,2013-05-27 05:47:00,
2013-05-27 01:52:00,51.4,45.1,30.17,WNW,293,8.0,8.0,79,0.00,,,0.00,meteohub,2013-05-27 05:52:00,
2013-05-27 01:57:00,51.4,45.5,30.17,West,270,10.0,10.0,80,0.00,,,0.00,meteohub,2013-05-27 05:57:00,
2013-05-27 02:02:00,51.4,45.5,30.18,WNW,293,7.0,10.0,80,0.00,,,0.00,meteohub,2013-05-27 06:02:00,
2013-05-27 02:07:00,51.3,45.3,30.18,NW,315,5.0,10.0,80,0.00,,,0.00,meteohub,2013-05-27 06:07:00,
2013-05-27 02:12:00,51.1,45.1,30.18,NW,315,6.0,10.0,80,0.00,,,0.00,meteohub,2013-05-27 06:12:00,
2013-05-27 02:17:00,51.1,45.5,30.18,NNW,338,4.0,9.0,81,0.00,,,0.00,meteohub,2013-05-27 06:17:00,
2013-05-27 02:22:00,50.9,45.7,30.18,NW,315,7.0,7.0,82,0.00,,,0.00,meteohub,2013-05-27 06:22:00,
2013-05-27 02:27:00,50.7,45.5,30.17,NNW,338,6.0,7.0,82,0.00,,,0.00,meteohub,2013-05-27 06:27:00,
2013-05-27 02:32:00,50.7,45.5,30.17,NW,315,6.0,7.0,82,0.00,,,0.00,meteohub,2013-05-27 06:32:00,
2013-05-27 02:37:00,50.5,45.3,30.17,NW,315,4.0,7.0,82,0.00,,,0.00,meteohub,2013-05-27 06:37:00,
2013-05-27 02:42:00,50.4,45.3,30.18,NW,315,7.0,7.0,83,0.00,,,0.00,meteohub,2013-05-27 06:42:00,
2013-05-27 02:47:00,50.5,45.9,30.18,WNW,293,7.0,9.0,84,0.00,,,0.00,meteohub,2013-05-27 06:47:00,
2013-05-27 02:52:00,50.4,45.7,30.18,NW,315,6.0,9.0,84,0.00,,,0.00,meteohub,2013-05-27 06:52:00,
2013-05-27 02:57:00,50.5,45.9,30.18,NW,315,6.0,8.0,84,0.00,,,0.00,meteohub,2013-05-27 06:57:00,
2013-05-27 03:02:00,50.4,45.7,30.18,WNW,293,12.0,12.0,84,0.00,,,0.00,meteohub,2013-05-27 07:02:00,
2013-05-27 03:07:00,50.4,45.7,30.18,WNW,293,12.0,12.0,84,0.00,,,0.00,meteohub,2013-05-27 07:07:00,
2013-05-27 03:12:00,50.9,46.2,30.18,NNW,338,10.0,12.0,84,0.00,,,0.00,meteohub,2013-05-27 07:12:00,
2013-05-27 03:17:00,51.3,46.6,30.18,NW,315,17.0,17.0,84,0.00,,,0.00,meteohub,2013-05-27 07:17:00,
2013-05-27 03:23:00,51.4,46.8,30.18,NW,315,14.0,17.0,84,0.00,,,0.00,meteohub,2013-05-27 07:23:00,
2013-05-27 03:28:00,51.6,46.9,30.18,WNW,293,11.0,17.0,84,0.00,,,0.00,meteohub,2013-05-27 07:28:00,
2013-05-27 03:33:00,51.8,47.5,30.18,WNW,293,11.0,17.0,85,0.00,,,0.00,meteohub,2013-05-27 07:33:00,
2013-05-27 03:38:00,52.0,47.7,30.18,NW,315,10.0,14.0,85,0.00,,,0.00,meteohub,2013-05-27 07:38:00,
2013-05-27 03:43:00,51.8,47.5,30.18,NNW,338,10.0,11.0,85,0.00,,,0.00,meteohub,2013-05-27 07:43:00,
2013-05-27 03:48:00,51.8,47.1,30.18,NNW,338,13.0,15.0,84,0.00,,,0.00,meteohub,2013-05-27 07:48:00,
2013-05-27 03:53:00,51.6,46.9,30.18,NW,315,9.0,15.0,84,0.00,,,0.00,meteohub,2013-05-27 07:53:00,
2013-05-27 03:58:00,51.6,46.9,30.18,NNW,338,10.0,15.0,84,0.00,,,0.00,meteohub,2013-05-27 07:58:00,
2013-05-27 04:03:00,51.4,46.4,30.17,NW,315,11.0,13.0,83,0.00,,,0.00,meteohub,2013-05-27 08:03:00,
2013-05-27 04:08:00,51.3,46.2,30.17,NW,315,16.0,16.0,83,0.00,,,0.00,meteohub,2013-05-27 08:08:00,
2013-05-27 04:13:00,51.3,46.2,30.17,WNW,293,11.0,14.0,83,0.00,,,0.00,meteohub,2013-05-27 08:13:00,
2013-05-27 04:18:00,51.3,45.7,30.17,NNW,338,13.0,16.0,81,0.00,,,0.00,meteohub,2013-05-27 08:18:00,
2013-05-27 04:24:00,51.3,45.0,30.17,WNW,293,13.0,16.0,79,0.00,,,0.00,meteohub,2013-05-27 08:24:00,
2013-05-27 04:29:00,50.9,44.2,30.17,NNW,338,15.0,15.0,78,0.00,,,0.00,meteohub,2013-05-27 08:29:00,
2013-05-27 04:34:00,50.7,43.7,30.17,NW,315,7.0,16.0,77,0.00,,,0.00,meteohub,2013-05-27 08:34:00,
2013-05-27 04:39:00,50.7,43.5,30.17,NW,315,9.0,16.0,76,0.00,,,0.00,meteohub,2013-05-27 08:39:00,
2013-05-27 04:44:00,50.7,43.5,30.17,WNW,293,17.0,17.0,76,0.00,,,0.00,meteohub,2013-05-27 08:44:00,
2013-05-27 04:49:00,50.7,43.2,30.17,NW,315,13.0,17.0,75,0.00,,,0.00,meteohub,2013-05-27 08:49:00,
2013-05-27 04:54:00,50.5,42.6,30.17,North,0,7.0,17.0,74,0.00,,,0.00,meteohub,2013-05-27 08:54:00,
2013-05-27 04:59:00,50.5,42.6,30.17,NW,315,13.0,17.0,74,0.00,,,0.00,meteohub,2013-05-27 08:59:00,
2013-05-27 05:04:00,50.5,42.6,30.18,West,270,7.0,14.0,74,0.00,,,0.00,meteohub,2013-05-27 09:04:00,
2013-05-27 05:09:00,50.5,43.0,30.18,North,0,7.0,14.0,75,0.00,,,0.00,meteohub,2013-05-27 09:09:00,
2013-05-27 05:14:00,50.2,42.6,30.18,North,0,10.0,14.0,75,0.00,,,0.00,meteohub,2013-05-27 09:14:00,
2013-05-27 05:20:00,50.2,42.3,30.18,NW,315,15.0,15.0,74,0.00,,,0.00,meteohub,2013-05-27 09:20:00,
2013-05-27 05:25:00,50.2,42.3,30.18,NW,315,11.0,15.0,74,0.00,,,0.00,meteohub,2013-05-27 09:25:00,
2013-05-27 05:30:00,50.2,42.3,30.18,NW,315,11.0,15.0,74,0.00,,,0.00,meteohub,2013-05-27 09:30:00,
2013-05-27 05:35:00,50.2,42.3,30.18,NNW,338,7.0,13.0,74,0.00,,,0.00,meteohub,2013-05-27 09:35:00,
2013-05-27 05:40:00,50.2,42.3,30.18,NW,315,9.0,14.0,74,0.00,,,0.00,meteohub,2013-05-27 09:40:00,
2013-05-27 05:45:00,50.0,42.1,30.19,NNW,338,11.0,14.0,74,0.00,,,0.00,meteohub,2013-05-27 09:45:00,
2013-05-27 05:50:00,50.0,42.1,30.19,West,270,9.0,14.0,74,0.00,,,0.00,meteohub,2013-05-27 09:50:00,
2013-05-27 05:55:00,50.2,42.3,30.19,NW,315,14.0,14.0,74,0.00,,,0.00,meteohub,2013-05-27 09:55:00,
2013-05-27 06:00:00,50.4,42.4,30.19,NNW,338,13.0,15.0,74,0.00,,,0.00,meteohub,2013-05-27 10:00:00,
2013-05-27 06:05:00,50.2,41.9,30.20,NNW,338,13.0,15.0,73,0.00,,,0.00,meteohub,2013-05-27 10:05:00,
2013-05-27 06:10:00,50.2,41.9,30.20,NNW,338,13.0,15.0,73,0.00,,,0.00,meteohub,2013-05-27 10:10:00,
2013-05-27 06:15:00,50.5,42.3,30.20,NW,315,14.0,15.0,73,0.00,,,0.00,meteohub,2013-05-27 10:15:00,
2013-05-27 06:21:00,50.7,42.4,30.20,NW,315,13.0,16.0,73,0.00,,,0.00,meteohub,2013-05-27 10:21:00,
2013-05-27 06:26:00,50.7,42.8,30.19,NW,315,14.0,16.0,74,0.00,,,0.00,meteohub,2013-05-27 10:26:00,
2013-05-27 06:31:00,50.9,42.6,30.19,NW,315,13.0,16.0,73,0.00,,,0.00,meteohub,2013-05-27 10:31:00,
2013-05-27 06:36:00,51.3,43.0,30.19,NW,315,10.0,16.0,73,0.00,,,0.00,meteohub,2013-05-27 10:36:00,
2013-05-27 06:41:00,51.3,43.0,30.19,NW,315,13.0,16.0,73,0.00,,,0.00,meteohub,2013-05-27 10:41:00,
2013-05-27 06:46:00,51.3,43.0,30.20,WNW,293,8.0,14.0,73,0.00,,,0.00,meteohub,2013-05-27 10:46:00,
2013-05-27 06:51:00,51.3,43.0,30.20,NW,315,14.0,16.0,73,0.00,,,0.00,meteohub,2013-05-27 10:51:00,
2013-05-27 06:56:00,51.4,43.2,30.20,NNE,23,8.0,18.0,73,0.00,,,0.00,meteohub,2013-05-27 10:56:00,
2013-05-27 07:01:00,51.4,43.2,30.20,NNW,338,8.0,18.0,73,0.00,,,0.00,meteohub,2013-05-27 11:01:00,
2013-05-27 07:06:00,51.8,43.3,30.20,NW,315,14.0,18.0,73,0.00,,,0.00,meteohub,2013-05-27 11:06:00,
2013-05-27 07:11:00,51.8,43.7,30.20,NW,315,10.0,15.0,74,0.00,,,0.00,meteohub,2013-05-27 11:11:00,
2013-05-27 07:16:00,52.2,44.8,30.20,WNW,293,8.0,15.0,76,0.00,,,0.00,meteohub,2013-05-27 11:16:00,
2013-05-27 07:22:00,52.2,44.8,30.20,NW,315,12.0,14.0,76,0.00,,,0.00,meteohub,2013-05-27 11:22:00,
2013-05-27 07:27:00,52.5,45.5,30.20,NW,315,14.0,14.0,77,0.00,,,0.00,meteohub,2013-05-27 11:27:00,
2013-05-27 07:32:00,52.7,45.7,30.20,NNW,338,9.0,14.0,77,0.00,,,0.00,meteohub,2013-05-27 11:32:00,
2013-05-27 07:37:00,52.7,45.7,30.20,NW,315,15.0,16.0,77,0.00,,,0.00,meteohub,2013-05-27 11:37:00,
2013-05-27 07:42:00,52.7,45.7,30.20,NNW,338,11.0,16.0,77,0.00,,,0.00,meteohub,2013-05-27 11:42:00,
2013-05-27 07:47:00,52.7,46.0,30.21,North,0,9.0,15.0,78,0.00,,,0.00,meteohub,2013-05-27 11:47:00,
2013-05-27 07:52:00,52.9,46.2,30.21,NW,315,15.0,15.0,78,0.00,,,0.00,meteohub,2013-05-27 11:52:00,
2013-05-27 07:57:00,53.1,46.4,30.21,NW,315,9.0,16.0,78,0.00,,,0.00,meteohub,2013-05-27 11:57:00,
2013-05-27 08:02:00,53.1,46.4,30.21,NW,315,9.0,16.0,78,0.00,,,0.00,meteohub,2013-05-27 12:02:00,
2013-05-27 08:07:00,53.4,47.1,30.21,NW,315,14.0,15.0,79,0.00,,,0.00,meteohub,2013-05-27 12:07:00,
2013-05-27 08:12:00,53.4,46.8,30.21,NNW,338,10.0,14.0,78,0.00,,,0.00,meteohub,2013-05-27 12:12:00,
2013-05-27 08:17:00,53.4,46.8,30.21,NNE,23,7.0,17.0,78,0.00,,,0.00,meteohub,2013-05-27 12:17:00,
2013-05-27 08:22:00,53.8,47.1,30.21,NNW,338,12.0,17.0,78,0.00,,,0.00,meteohub,2013-05-27 12:22:00,
2013-05-27 08:27:00,53.8,47.1,30.22,North,0,10.0,13.0,78,0.00,,,0.00,meteohub,2013-05-27 12:27:00,
2013-05-27 08:32:00,53.8,46.4,30.22,NW,315,9.0,15.0,76,0.00,,,0.00,meteohub,2013-05-27 12:32:00,
2013-05-27 08:37:00,54.1,46.4,30.22,NW,315,11.0,20.0,75,0.00,,,0.00,meteohub,2013-05-27 12:37:00,
2013-05-27 08:42:00,54.1,46.4,30.22,NNW,338,7.0,20.0,75,0.00,,,0.00,meteohub,2013-05-27 12:42:00,
2013-05-27 08:47:00,54.3,46.6,30.22,NW,315,14.0,14.0,75,0.00,,,0.00,meteohub,2013-05-27 12:47:00,
2013-05-27 08:52:00,54.3,46.2,30.22,NNW,338,13.0,14.0,74,0.00,,,0.00,meteohub,2013-05-27 12:52:00,
2013-05-27 08:57:00,54.5,46.4,30.22,NNW,338,12.0,17.0,74,0.00,,,0.00,meteohub,2013-05-27 12:57:00,
2013-05-27 09:02:00,54.5,46.0,30.22,NW,315,12.0,17.0,73,0.00,,,0.00,meteohub,2013-05-27 13:02:00,
2013-05-27 09:07:00,54.7,46.6,30.22,NNW,338,13.0,17.0,74,0.00,,,0.00,meteohub,2013-05-27 13:07:00,
2013-05-27 09:12:00,54.9,46.0,30.22,NNW,338,20.0,20.0,72,0.00,,,0.00,meteohub,2013-05-27 13:12:00,
2013-05-27 09:17:00,54.9,46.0,30.22,NW,315,19.0,20.0,72,0.00,,,0.00,meteohub,2013-05-27 13:17:00,
2013-05-27 09:22:00,54.9,46.0,30.22,NW,315,16.0,20.0,72,0.00,,,0.00,meteohub,2013-05-27 13:22:00,
2013-05-27 09:27:00,55.2,46.8,30.22,West,270,13.0,20.0,73,0.00,,,0.00,meteohub,2013-05-27 13:27:00,
2013-05-27 09:32:00,55.0,46.6,30.22,NW,315,16.0,19.0,73,0.00,,,0.00,meteohub,2013-05-27 13:32:00,
2013-05-27 09:37:00,55.0,46.6,30.22,NW,315,14.0,16.0,73,0.00,,,0.00,meteohub,2013-05-27 13:37:00,
2013-05-27 09:42:00,55.2,46.4,30.22,North,0,11.0,16.0,72,0.00,,,0.00,meteohub,2013-05-27 13:42:00,
2013-05-27 09:47:00,55.4,46.6,30.22,NW,315,16.0,16.0,72,0.00,,,0.00,meteohub,2013-05-27 13:47:00,
2013-05-27 09:52:00,55.8,47.3,30.22,NNW,338,12.0,17.0,73,0.00,,,0.00,meteohub,2013-05-27 13:52:00,
2013-05-27 09:57:00,55.9,47.8,30.22,NNW,338,15.0,17.0,74,0.00,,,0.00,meteohub,2013-05-27 13:57:00,
2013-05-27 10:02:00,55.9,47.5,30.21,NW,315,15.0,16.0,73,0.00,,,0.00,meteohub,2013-05-27 14:02:00,
2013-05-27 10:07:00,55.9,47.5,30.21,NW,315,17.0,18.0,73,0.00,,,0.00,meteohub,2013-05-27 14:07:00,
2013-05-27 10:12:00,56.1,47.3,30.21,NW,315,18.0,18.0,72,0.00,,,0.00,meteohub,2013-05-27 14:12:00,
2013-05-27 10:17:00,56.3,47.5,30.21,NNW,338,15.0,18.0,72,0.00,,,0.00,meteohub,2013-05-27 14:17:00,
2013-05-27 10:22:00,56.5,48.0,30.21,NW,315,13.0,18.0,73,0.00,,,0.00,meteohub,2013-05-27 14:22:00,
2013-05-27 10:28:00,56.7,47.7,30.21,NW,315,13.0,18.0,72,0.00,,,0.00,meteohub,2013-05-27 14:28:00,
2013-05-27 10:33:00,56.7,47.7,30.21,NW,315,17.0,17.0,72,0.00,,,0.00,meteohub,2013-05-27 14:33:00,
2013-05-27 10:38:00,57.0,48.0,30.21,NW,315,18.0,19.0,72,0.00,,,0.00,meteohub,2013-05-27 14:38:00,
2013-05-27 10:43:00,56.8,48.2,30.21,WNW,293,13.0,19.0,73,0.00,,,0.00,meteohub,2013-05-27 14:43:00,
2013-05-27 10:48:00,57.2,48.6,30.21,WNW,293,9.0,19.0,73,0.00,,,0.00,meteohub,2013-05-27 14:48:00,
2013-05-27 10:53:00,57.4,48.4,30.21,West,270,13.0,19.0,72,0.00,,,0.00,meteohub,2013-05-27 14:53:00,
2013-05-27 10:58:00,57.4,48.4,30.21,NW,315,14.0,19.0,72,0.00,,,0.00,meteohub,2013-05-27 14:58:00,
2013-05-27 11:04:00,57.6,48.6,30.20,NW,315,12.0,19.0,72,0.00,,,0.00,meteohub,2013-05-27 15:04:00,
2013-05-27 11:09:00,57.9,48.9,30.20,NW,315,15.0,16.0,72,0.00,,,0.00,meteohub,2013-05-27 15:09:00,
2013-05-27 11:16:00,57.9,48.6,30.20,NW,315,18.0,18.0,71,0.00,,,0.00,meteohub,2013-05-27 15:16:00,
2013-05-27 11:21:00,58.1,48.7,30.20,West,270,17.0,21.0,71,0.00,,,0.00,meteohub,2013-05-27 15:21:00,
2013-05-27 11:26:00,58.1,48.7,30.21,NW,315,17.0,21.0,71,0.00,,,0.00,meteohub,2013-05-27 15:26:00,
2013-05-27 11:31:00,58.3,48.9,30.21,WNW,293,11.0,21.0,71,0.00,,,0.00,meteohub,2013-05-27 15:31:00,
2013-05-27 11:37:00,58.5,49.1,30.21,WNW,293,17.0,21.0,71,0.00,,,0.00,meteohub,2013-05-27 15:37:00,
2013-05-27 11:42:00,59.2,49.8,30.21,NW,315,13.0,21.0,71,0.00,,,0.00,meteohub,2013-05-27 15:42:00,
2013-05-27 11:47:00,59.4,49.6,30.21,West,270,14.0,21.0,70,0.00,,,0.00,meteohub,2013-05-27 15:47:00,
2013-05-27 11:52:00,59.2,49.5,30.21,NW,315,12.0,17.0,70,0.00,,,0.00,meteohub,2013-05-27 15:52:00,
2013-05-27 11:57:00,59.2,49.5,30.21,NW,315,17.0,17.0,70,0.00,,,0.00,meteohub,2013-05-27 15:57:00,
2013-05-27 12:02:00,59.2,49.5,30.21,NW,315,17.0,23.0,70,0.00,,,0.00,meteohub,2013-05-27 16:02:00,
2013-05-27 12:07:00,59.4,49.6,30.19,NW,315,22.0,23.0,70,0.00,,,0.00,meteohub,2013-05-27 16:07:00,
2013-05-27 12:12:00,59.4,49.6,30.19,NW,315,22.0,23.0,70,0.00,,,0.00,meteohub,2013-05-27 16:12:00,
2013-05-27 12:17:00,59.9,49.6,30.19,South,180,18.0,22.0,69,0.00,,,0.00,meteohub,2013-05-27 16:17:00,
2013-05-27 12:22:00,60.1,49.8,30.19,NW,315,17.0,22.0,69,0.00,,,0.00,meteohub,2013-05-27 16:22:00,
2013-05-27 12:27:00,60.3,50.0,30.19,WNW,293,8.0,22.0,69,0.00,,,0.00,meteohub,2013-05-27 16:27:00,
2013-05-27 12:32:00,60.8,50.2,30.19,West,270,14.0,21.0,68,0.00,,,0.00,meteohub,2013-05-27 16:32:00,
2013-05-27 12:37:00,60.8,49.8,30.19,NW,315,12.0,21.0,67,0.00,,,0.00,meteohub,2013-05-27 16:37:00,
2013-05-27 12:42:00,61.2,49.6,30.19,NW,315,23.0,23.0,66,0.00,,,0.00,meteohub,2013-05-27 16:42:00,
2013-05-27 12:47:00,61.0,50.0,30.18,WNW,293,13.0,16.0,67,0.00,,,0.00,meteohub,2013-05-27 16:47:00,
2013-05-27 12:52:00,61.2,49.6,30.18,NW,315,23.0,23.0,66,0.00,,,0.00,meteohub,2013-05-27 16:52:00,
2013-05-27 12:57:00,61.7,49.8,30.18,NW,315,19.0,23.0,65,0.00,,,0.00,meteohub,2013-05-27 16:57:00,
2013-05-27 13:02:00,62.1,50.2,30.18,NW,315,15.0,23.0,65,0.00,,,0.00,meteohub,2013-05-27 17:02:00,
2013-05-27 13:07:00,62.6,50.2,30.18,West,270,19.0,23.0,64,0.00,,,0.00,meteohub,2013-05-27 17:07:00,
2013-05-27 13:12:00,63.0,50.5,30.18,NW,315,8.0,19.0,64,0.00,,,0.00,meteohub,2013-05-27 17:12:00,
2013-05-27 13:17:00,63.3,50.5,30.18,ENE,68,12.0,19.0,63,0.00,,,0.00,meteohub,2013-05-27 17:17:00,
2013-05-27 13:22:00,63.5,49.3,30.17,NW,315,17.0,19.0,60,0.00,,,0.00,meteohub,2013-05-27 17:22:00,
2013-05-27 13:27:00,63.7,49.5,30.17,NNW,338,15.0,17.0,60,0.00,,,0.00,meteohub,2013-05-27 17:27:00,
2013-05-27 13:32:00,64.0,48.9,30.17,NW,315,16.0,17.0,58,0.00,,,0.00,meteohub,2013-05-27 17:32:00,
2013-05-27 13:37:00,64.4,48.9,30.17,West,270,14.0,17.0,57,0.00,,,0.00,meteohub,2013-05-27 17:37:00,
2013-05-27 13:42:00,64.6,48.9,30.17,West,270,15.0,17.0,57,0.00,,,0.00,meteohub,2013-05-27 17:42:00,
2013-05-27 13:47:00,64.9,48.9,30.17,NW,315,19.0,19.0,56,0.00,,,0.00,meteohub,2013-05-27 17:47:00,
2013-05-27 13:52:00,64.8,49.6,30.17,NW,315,8.0,19.0,58,0.00,,,0.00,meteohub,2013-05-27 17:52:00,
2013-05-27 13:57:00,65.3,49.3,30.17,West,270,21.0,21.0,56,0.00,,,0.00,meteohub,2013-05-27 17:57:00,
2013-05-27 14:02:00,65.3,49.3,30.17,NW,315,17.0,21.0,56,0.00,,,0.00,meteohub,2013-05-27 18:02:00,
2013-05-27 14:07:00,65.3,48.2,30.16,West,270,9.0,21.0,54,0.00,,,0.00,meteohub,2013-05-27 18:07:00,
2013-05-27 14:12:00,65.5,48.4,30.16,NW,315,18.0,21.0,54,0.00,,,0.00,meteohub,2013-05-27 18:12:00,
2013-05-27 14:17:00,65.7,47.5,30.16,West,270,19.0,25.0,52,0.00,,,0.00,meteohub,2013-05-27 18:17:00,
2013-05-27 14:22:00,66.2,48.0,30.15,NNW,338,16.0,25.0,52,0.00,,,0.00,meteohub,2013-05-27 18:22:00,
2013-05-27 14:27:00,66.4,48.2,30.15,NW,315,8.0,19.0,52,0.00,,,0.00,meteohub,2013-05-27 18:27:00,
2013-05-27 14:32:00,66.7,48.0,30.15,West,270,18.0,19.0,51,0.00,,,0.00,meteohub,2013-05-27 18:32:00,
2013-05-27 14:37:00,67.1,47.8,30.15,West,270,18.0,18.0,50,0.00,,,0.00,meteohub,2013-05-27 18:37:00,
2013-05-27 14:42:00,67.3,48.0,30.15,West,270,23.0,23.0,50,0.00,,,0.00,meteohub,2013-05-27 18:42:00,
2013-05-27 14:47:00,66.9,47.1,30.15,NW,315,19.0,23.0,49,0.00,,,0.00,meteohub,2013-05-27 18:47:00,
2013-05-27 14:52:00,66.9,47.7,30.15,NW,315,20.0,23.0,50,0.00,,,0.00,meteohub,2013-05-27 18:52:00,
2013-05-27 14:57:00,66.9,46.6,30.15,NW,315,20.0,23.0,48,0.00,,,0.00,meteohub,2013-05-27 18:57:00,
2013-05-27 15:02:00,67.1,46.8,30.14,WNW,293,16.0,23.0,48,0.00,,,0.00,meteohub,2013-05-27 19:02:00,
2013-05-27 15:07:00,67.3,47.5,30.14,NW,315,18.0,23.0,49,0.00,,,0.00,meteohub,2013-05-27 19:07:00,
2013-05-27 15:12:00,67.8,46.9,30.14,West,270,9.0,22.0,47,0.00,,,0.00,meteohub,2013-05-27 19:12:00,
2013-05-27 15:17:00,68.0,46.9,30.14,NW,315,13.0,22.0,47,0.00,,,0.00,meteohub,2013-05-27 19:17:00,
2013-05-27 15:22:00,67.8,45.7,30.14,West,270,27.0,27.0,45,0.00,,,0.00,meteohub,2013-05-27 19:22:00,
2013-05-27 15:27:00,67.8,46.2,30.14,WNW,293,12.0,27.0,46,0.00,,,0.00,meteohub,2013-05-27 19:27:00,
2013-05-27 15:32:00,68.2,47.1,30.14,NW,315,18.0,27.0,47,0.00,,,0.00,meteohub,2013-05-27 19:32:00,
2013-05-27 15:37:00,68.0,46.4,30.14,West,270,20.0,27.0,46,0.00,,,0.00,meteohub,2013-05-27 19:37:00,
2013-05-27 15:42:00,68.4,46.2,30.14,NW,315,18.0,21.0,45,0.00,,,0.00,meteohub,2013-05-27 19:42:00,
2013-05-27 15:47:00,68.5,46.9,30.14,NW,315,15.0,22.0,46,0.00,,,0.00,meteohub,2013-05-27 19:47:00,
2013-05-27 15:52:00,68.7,46.6,30.14,WNW,293,15.0,22.0,45,0.00,,,0.00,meteohub,2013-05-27 19:52:00,
2013-05-27 15:57:00,69.1,47.5,30.14,WNW,293,17.0,20.0,46,0.00,,,0.00,meteohub,2013-05-27 19:57:00,
2013-05-27 16:02:00,69.4,46.6,30.13,NW,315,17.0,20.0,44,0.00,,,0.00,meteohub,2013-05-27 20:02:00,
2013-05-27 16:07:00,70.0,47.1,30.13,WNW,293,15.0,20.0,44,0.00,,,0.00,meteohub,2013-05-27 20:07:00,
2013-05-27 16:12:00,69.8,46.9,30.13,South,180,10.0,20.0,44,0.00,,,0.00,meteohub,2013-05-27 20:12:00,
2013-05-27 16:17:00,70.0,48.2,30.13,West,270,20.0,20.0,46,0.00,,,0.00,meteohub,2013-05-27 20:17:00,
2013-05-27 16:22:00,70.5,49.3,30.13,West,270,13.0,20.0,47,0.00,,,0.00,meteohub,2013-05-27 20:22:00,
2013-05-27 16:27:00,70.7,49.5,30.13,West,270,17.0,20.0,47,0.00,,,0.00,meteohub,2013-05-27 20:27:00,
2013-05-27 16:32:00,70.9,49.1,30.13,West,270,21.0,21.0,46,0.00,,,0.00,meteohub,2013-05-27 20:32:00,
2013-05-27 16:37:00,70.7,48.4,30.13,West,270,18.0,21.0,45,0.00,,,0.00,meteohub,2013-05-27 20:37:00,
2013-05-27 16:42:00,70.5,48.2,30.13,WNW,293,19.0,21.0,45,0.00,,,0.00,meteohub,2013-05-27 20:42:00,
2013-05-27 16:47:00,70.7,47.7,30.13,NW,315,23.0,23.0,44,0.00,,,0.00,meteohub,2013-05-27 20:47:00,
2013-05-27 16:52:00,70.9,48.6,30.13,WSW,248,21.0,23.0,45,0.00,,,0.00,meteohub,2013-05-27 20:52:00,
2013-05-27 16:57:00,70.5,48.2,30.13,NNW,338,13.0,23.0,45,0.00,,,0.00,meteohub,2013-05-27 20:57:00,
2013-05-27 17:02:00,70.9,49.1,30.13,West,270,23.0,23.0,46,0.00,,,0.00,meteohub,2013-05-27 21:02:00,
2013-05-27 17:07:00,70.7,47.7,30.13,WNW,293,18.0,23.0,44,0.00,,,0.00,meteohub,2013-05-27 21:07:00,
2013-05-27 17:12:00,70.7,48.4,30.13,West,270,18.0,23.0,45,0.00,,,0.00,meteohub,2013-05-27 21:12:00,
2013-05-27 17:17:00,70.7,48.4,30.13,West,270,21.0,23.0,45,0.00,,,0.00,meteohub,2013-05-27 21:17:00,
2013-05-27 17:22:00,70.7,48.4,30.13,West,270,10.0,20.0,45,0.00,,,0.00,meteohub,2013-05-27 21:22:00,
2013-05-27 17:27:00,70.7,48.9,30.13,WSW,248,12.0,21.0,46,0.00,,,0.00,meteohub,2013-05-27 21:27:00,
2013-05-27 17:32:00,70.7,49.5,30.13,WSW,248,17.0,21.0,47,0.00,,,0.00,meteohub,2013-05-27 21:32:00,
2013-05-27 17:37:00,70.5,49.3,30.13,West,270,16.0,17.0,47,0.00,,,0.00,meteohub,2013-05-27 21:37:00,
2013-05-27 17:42:00,70.3,49.6,30.14,West,270,12.0,17.0,48,0.00,,,0.00,meteohub,2013-05-27 21:42:00,
2013-05-27 17:47:00,70.7,49.5,30.14,WSW,248,21.0,21.0,47,0.00,,,0.00,meteohub,2013-05-27 21:47:00,
2013-05-27 17:52:00,70.2,48.9,30.14,West,270,12.0,21.0,47,0.00,,,0.00,meteohub,2013-05-27 21:52:00,
2013-05-27 17:57:00,70.2,48.4,30.14,West,270,17.0,21.0,46,0.00,,,0.00,meteohub,2013-05-27 21:57:00,
2013-05-27 18:02:00,70.0,48.2,30.14,WSW,248,14.0,22.0,46,0.00,,,0.00,meteohub,2013-05-27 22:02:00,
2013-05-27 18:07:00,69.4,47.8,30.13,West,270,5.0,23.0,46,0.00,,,0.00,meteohub,2013-05-27 22:07:00,
2013-05-27 18:12:00,69.6,47.8,30.13,WSW,248,12.0,23.0,46,0.00,,,0.00,meteohub,2013-05-27 22:12:00,
2013-05-27 18:17:00,68.9,47.3,30.13,WNW,293,15.0,23.0,46,0.00,,,0.00,meteohub,2013-05-27 22:17:00,
2013-05-27 18:22:00,68.9,47.3,30.13,SW,225,17.0,21.0,46,0.00,,,0.00,meteohub,2013-05-27 22:22:00,
2013-05-27 18:27:00,68.5,46.4,30.14,NW,315,16.0,24.0,45,0.00,,,0.00,meteohub,2013-05-27 22:27:00,
2013-05-27 18:32:00,68.2,47.1,30.14,WNW,293,11.0,24.0,47,0.00,,,0.00,meteohub,2013-05-27 22:32:00,
2013-05-27 18:37:00,68.2,47.1,30.14,NW,315,10.0,24.0,47,0.00,,,0.00,meteohub,2013-05-27 22:37:00,
2013-05-27 18:42:00,67.8,46.9,30.14,WSW,248,11.0,21.0,47,0.00,,,0.00,meteohub,2013-05-27 22:42:00,
2013-05-27 18:47:00,67.6,46.8,30.14,West,270,21.0,21.0,47,0.00,,,0.00,meteohub,2013-05-27 22:47:00,
2013-05-27 18:52:00,67.3,46.4,30.14,West,270,17.0,21.0,47,0.00,,,0.00,meteohub,2013-05-27 22:52:00,
2013-05-27 18:57:00,67.1,46.8,30.14,WNW,293,17.0,21.0,48,0.00,,,0.00,meteohub,2013-05-27 22:57:00,
2013-05-27 19:02:00,66.9,46.6,30.14,West,270,21.0,21.0,48,0.00,,,0.00,meteohub,2013-05-27 23:02:00,
2013-05-27 19:07:00,66.9,47.1,30.14,WNW,293,13.0,21.0,49,0.00,,,0.00,meteohub,2013-05-27 23:07:00,
2013-05-27 19:12:00,66.6,47.3,30.14,WNW,293,13.0,21.0,50,0.00,,,0.00,meteohub,2013-05-27 23:12:00,
2013-05-27 19:17:00,65.8,46.8,30.14,West,270,18.0,21.0,50,0.00,,,0.00,meteohub,2013-05-27 23:17:00,
2013-05-27 19:22:00,65.3,47.3,30.14,West,270,12.0,18.0,52,0.00,,,0.00,meteohub,2013-05-27 23:22:00,
2013-05-27 19:28:00,64.6,47.1,30.14,NW,315,17.0,18.0,53,0.00,,,0.00,meteohub,2013-05-27 23:28:00,
2013-05-27 19:33:00,64.2,47.3,30.14,West,270,15.0,20.0,54,0.00,,,0.00,meteohub,2013-05-27 23:33:00,
2013-05-27 19:38:00,63.9,46.9,30.14,West,270,19.0,20.0,54,0.00,,,0.00,meteohub,2013-05-27 23:38:00,
2013-05-27 19:43:00,63.5,47.1,30.15,WSW,248,15.0,19.0,55,0.00,,,0.00,meteohub,2013-05-27 23:43:00,
2013-05-27 19:48:00,62.8,47.3,30.15,West,270,15.0,19.0,57,0.00,,,0.00,meteohub,2013-05-27 23:48:00,
2013-05-27 19:53:00,62.1,47.1,30.15,West,270,11.0,19.0,58,0.00,,,0.00,meteohub,2013-05-27 23:53:00,
2013-05-27 19:58:00,61.7,46.8,30.15,SSE,158,13.0,16.0,58,0.00,,,0.00,meteohub,2013-05-27 23:58:00,
2013-05-27 20:03:00,61.7,46.8,30.16,WNW,293,12.0,16.0,58,0.00,,,0.00,meteohub,2013-05-28 00:03:00,
2013-05-27 20:09:00,61.0,46.6,30.16,NW,315,9.0,16.0,59,0.00,,,0.00,meteohub,2013-05-28 00:09:00,
2013-05-27 20:14:00,60.6,47.1,30.16,NW,315,8.0,16.0,61,0.00,,,0.00,meteohub,2013-05-28 00:14:00,
2013-05-27 20:19:00,60.3,48.0,30.16,NW,315,10.0,16.0,64,0.00,,,0.00,meteohub,2013-05-28 00:19:00,
2013-05-27 20:25:00,59.9,48.6,30.16,WNW,293,11.0,12.0,66,0.00,,,0.00,meteohub,2013-05-28 00:25:00,
2013-05-27 20:30:00,59.5,48.6,30.16,WNW,293,14.0,14.0,67,0.00,,,0.00,meteohub,2013-05-28 00:30:00,
2013-05-27 20:35:00,59.4,48.4,30.16,West,270,11.0,14.0,67,0.00,,,0.00,meteohub,2013-05-28 00:35:00,
2013-05-27 20:40:00,59.2,48.6,30.16,NW,315,10.0,14.0,68,0.00,,,0.00,meteohub,2013-05-28 00:40:00,
2013-05-27 20:45:00,59.2,48.6,30.16,NNW,338,10.0,12.0,68,0.00,,,0.00,meteohub,2013-05-28 00:45:00,
2013-05-27 20:51:00,58.8,48.2,30.16,WNW,293,9.0,11.0,68,0.00,,,0.00,meteohub,2013-05-28 00:51:00,
2013-05-27 20:56:00,58.8,48.2,30.16,WNW,293,12.0,12.0,68,0.00,,,0.00,meteohub,2013-05-28 00:56:00,
2013-05-27 21:01:00,59.0,48.4,30.16,West,270,13.0,13.0,68,0.00,,,0.00,meteohub,2013-05-28 01:01:00,
2013-05-27 21:06:00,58.8,48.2,30.17,NW,315,10.0,13.0,68,0.00,,,0.00,meteohub,2013-05-28 01:06:00,
2013-05-27 21:12:00,58.6,48.2,30.17,NW,315,10.0,13.0,68,0.00,,,0.00,meteohub,2013-05-28 01:12:00,
2013-05-27 21:17:00,58.6,47.7,30.17,West,270,12.0,13.0,67,0.00,,,0.00,meteohub,2013-05-28 01:17:00,
2013-05-27 21:22:00,58.6,47.7,30.17,SW,225,9.0,13.0,67,0.00,,,0.00,meteohub,2013-05-28 01:22:00,
2013-05-27 21:27:00,58.5,48.0,30.17,NW,315,5.0,12.0,68,0.00,,,0.00,meteohub,2013-05-28 01:27:00,
2013-05-27 21:32:00,58.5,48.0,30.17,West,270,7.0,12.0,68,0.00,,,0.00,meteohub,2013-05-28 01:32:00,
2013-05-27 21:37:00,58.5,47.5,30.17,NW,315,7.0,10.0,67,0.00,,,0.00,meteohub,2013-05-28 01:37:00,
2013-05-27 21:42:00,58.3,47.8,30.17,North,0,5.0,10.0,68,0.00,,,0.00,meteohub,2013-05-28 01:42:00,
2013-05-27 21:47:00,58.1,47.7,30.18,NW,315,5.0,8.0,68,0.00,,,0.00,meteohub,2013-05-28 01:47:00,
2013-05-27 21:52:00,57.9,47.5,30.18,NW,315,3.0,8.0,68,0.00,,,0.00,meteohub,2013-05-28 01:52:00,
2013-05-27 21:57:00,57.9,47.5,30.18,West,270,2.0,6.0,68,0.00,,,0.00,meteohub,2013-05-28 01:57:00,
2013-05-27 22:02:00,57.7,47.3,30.18,West,270,4.0,5.0,68,0.00,,,0.00,meteohub,2013-05-28 02:02:00,
2013-05-27 22:07:00,57.7,47.7,30.18,West,270,5.0,5.0,69,0.00,,,0.00,meteohub,2013-05-28 02:07:00,
2013-05-27 22:12:00,57.4,47.7,30.18,West,270,6.0,6.0,70,0.00,,,0.00,meteohub,2013-05-28 02:12:00,
2013-05-27 22:18:00,57.4,47.7,30.18,WNW,293,6.0,6.0,70,0.00,,,0.00,meteohub,2013-05-28 02:18:00,
2013-05-27 22:23:00,57.2,47.5,30.19,NW,315,7.0,7.0,70,0.00,,,0.00,meteohub,2013-05-28 02:23:00,
2013-05-27 22:28:00,57.0,47.3,30.19,NW,315,5.0,6.0,70,0.00,,,0.00,meteohub,2013-05-28 02:28:00,
2013-05-27 22:34:00,56.8,47.1,30.19,NW,315,6.0,7.0,70,0.00,,,0.00,meteohub,2013-05-28 02:34:00,
2013-05-27 22:39:00,56.7,46.9,30.19,NNW,338,4.0,7.0,70,0.00,,,0.00,meteohub,2013-05-28 02:39:00,
2013-05-27 22:44:00,56.7,46.9,30.19,NNW,338,5.0,6.0,70,0.00,,,0.00,meteohub,2013-05-28 02:44:00,
2013-05-27 22:49:00,56.7,46.9,30.19,NNW,338,4.0,7.0,70,0.00,,,0.00,meteohub,2013-05-28 02:49:00,
2013-05-27 22:54:00,56.5,47.1,30.19,North,0,3.0,7.0,71,0.00,,,0.00,meteohub,2013-05-28 02:54:00,
2013-05-27 22:59:00,56.7,47.3,30.19,NE,45,3.0,7.0,71,0.00,,,0.00,meteohub,2013-05-28 02:59:00,
2013-05-27 23:04:00,56.3,46.9,30.19,ENE,68,2.0,6.0,71,0.00,,,0.00,meteohub,2013-05-28 03:04:00,
2013-05-27 23:09:00,55.8,46.9,30.19,ENE,68,3.0,5.0,72,0.00,,,0.00,meteohub,2013-05-28 03:09:00,
2013-05-27 23:14:00,55.8,47.3,30.19,ENE,68,3.0,3.0,73,0.00,,,0.00,meteohub,2013-05-28 03:14:00,
2013-05-27 23:19:00,55.6,47.8,30.19,East,90,3.0,4.0,75,0.00,,,0.00,meteohub,2013-05-28 03:19:00,
2013-05-27 23:25:00,55.2,47.8,30.20,ENE,68,3.0,4.0,76,0.00,,,0.00,meteohub,2013-05-28 03:25:00,
2013-05-27 23:30:00,55.0,48.0,30.20,ENE,68,3.0,4.0,77,0.00,,,0.00,meteohub,2013-05-28 03:30:00,
2013-05-27 23:35:00,54.9,47.8,30.20,ENE,68,2.0,4.0,77,0.00,,,0.00,meteohub,2013-05-28 03:35:00,
2013-05-27 23:40:00,54.5,47.8,30.20,East,90,2.0,3.0,78,0.00,,,0.00,meteohub,2013-05-28 03:40:00,
2013-05-27 23:45:00,54.3,47.7,30.20,East,90,0.0,3.0,78,0.00,,,0.00,meteohub,2013-05-28 03:45:00,
2013-05-27 23:50:00,54.1,47.8,30.20,ENE,68,0.0,2.0,79,0.00,,,0.00,meteohub,2013-05-28 03:50:00,
2013-05-27 23:55:00,54.0,47.7,30.20,NNE,23,3.0,3.0,79,0.00,,,0.00,meteohub,2013-05-28 03:55:00,